Showing default

IRIDIUM 138, 43071

Orbit data source: Space-Track

IRIDIUM 138, 43071 is a payload satellite owned by Iridium (US) in LEO that was launched on Sat, 23 Dec 2017 UTC via an FALCON 9 launch vehicle from the Air Force Western Test Range (AFWTR). Payload-class satellites include a variety of spacecraft equipped with specific instruments for various scientific and technological missions. These include communications satellites like Starlink; space stations such as the ISS; scientific satellites like the Hubble; Earth observation satellites from companies like Planet Labs, Umbra, and HawkEye 360; GPS; miniature CubeSats for education and research; and military/defense satellites.

Loading next visibility...
Identifier
43071, 2017-083B
Orbit
LEO
Country
Flag of USUS
Related business
Manufacturer
OATK SSG Gilbert
Mission
Operational Commercial Communications
Bus & Motor
ELITEBUS, Unknown motor
Mass
860 kg wet, 700 kg dry
Launch date (UTC)
2017-12-23 (8 years ago)
Launch vehicle
FALCON 9
Launch site
Air Force Western Test Range (AFWTR)
Object type
Payload
Rocket body
Debris
Shape & HBR
Trap Box + 2 Pan, 4.8 m
Radar Cross Section
10.154 m², Large (>1 m²)

Expand to show TLE details & history
Last TLE update: 18 hours ago

TLE from 18 hours ago
0 IRIDIUM 138
1 43071U 17083B   25312.70841691  .00000095  00000-0  26847-4 0  9998
2 43071  86.3993  53.8279 0002337  87.4855 272.6608 14.34218214412537
Epoch: 2025-11-08T17:00Z
TLE epoch observation values (Epoch: 2025-11-08T17:00:07.221Z)
Latitude
-0.00003°
Longitude
110.66366°
Altitude
780.639 km
Speed
7.464 km/s
True Right ascension
03h 35m 18s
True Declination
0° 00' 00"
Sunlit
Object was in full shadow at epoch
Visualization orbit readout
Latitude
Unknown
Longitude
Unknown
Altitude
Unknown
Speed
Unknown
Apparent Right ascension
Unknown
Apparent Declination
Unknown
Sunlit
N/A
Visualization observer readout
Local Sidereal Time
07:08:07
Azimuth
Unknown
Elevation
Unknown
Doppler factor
Unknown
Orbital elements
Apogee altitude
776.302 km
Perigee altitude
772.958 km
Semi-major axis
7,152.767 km
Eccentricity
0.00023
Inclination
86.3993°
RAAN
53.8279°
Arg. of periapsis
87.4855°
True anomaly
272.63405°
Mean anomaly
272.6608°
Eccentric anomaly
272.64742°
Mean motion
3.58783 °/min
Orbital period
100.34 mins
BSTAR
0.000026847
Loading maneuver chart data...
Computing Atmospheric mass density...
Loading historical data...
Loading historical data...
Loading historical data...
Loading historical data...
Loading historical data...
Loading historical data...
Loading historical data...

Documentation

Showing up to 5 results
|